Weather History for KFMM - February, 2013

Change the Weather History Date:

Tuesday, February 26, 2013

  Actual Average (KAKO) Record (KAKO)
Temperature  
Mean Temperature 18 °F 34 °F  
Max Temperature 32 °F 47 °F 70 °F (1950)
Min Temperature 5 °F 22 °F -11 °F (1962)
Degree Days  
Heating Degree Days 46    
Month to date heating degree days  
Cooling Degree Days 0    
Month to date cooling degree days  
Moisture  
Dew Point 19 °F    
Average Humidity 85    
Maximum Humidity 95    
Minimum Humidity 70    
Precipitation  
Precipitation 0.00 in 0.02 in 1.16 in (1987)
Month to date precipitation 0.40  
Year to date precipitation 0.70  
Sea Level Pressure  
Sea Level Pressure 29.87 in    
Wind  
Wind Speed 12 mph (NW)    
Max Wind Speed 26 mph    
Max Gust Speed 33 mph    
Visibility 7 miles    
Events      
T = Trace of Precipitation, MM = Missing Value Source: NWS Daily Summary

Daily Weather History Graph

Daily Weather History Graph

Search for Another Location

Airport or City:

Trip Planner

Search our weather history database for the weather conditions in past years. The results will help you decide how hot, cold, wet, or windy it might be!

Date:

Astronomy

Feb. 26, 2013 Rise Set
Actual Time 6:32 AM MST 5:43 PM MST
Civil Twilight 6:05 AM MST 6:11 PM MST
Nautical Twilight 5:33 AM MST 6:42 PM MST
Astronomical Twilight 5:02 AM MST 7:14 PM MST
Moon 7:03 PM MST (2/26) 6:36 AM MST (2/26)
Length of Visible Light 12h 05m
Length of Day
11h 10m
Full, 99% of the Moon is Illuminated
Feb 26
Full
Mar 4
Last Quarter
Mar 11
New
Mar 19
First Quarter
Mar 27
Full

Hourly Weather History & Observations

Time (MST) Temp. Windchill Dew Point Humidity Pressure Visibility Wind Dir Wind Speed Gust Speed Precip Events Conditions
12:15 AM 8.6 °F 0.1 °F 6.4 °F 91% 29.83 in 10.0 mi WSW 4.6 mph - N/A   Clear
12:35 AM 8.4 °F 1.8 °F 5.9 °F 89% 29.83 in 10.0 mi West 3.5 mph - N/A   Clear
12:55 AM 10.2 °F -1.7 °F 7.3 °F 88% 29.83 in 10.0 mi West 8.1 mph - N/A   Clear
1:15 AM 8.6 °F -1.3 °F 4.1 °F 82% 29.83 in 10.0 mi West 5.8 mph - N/A   Clear
1:35 AM 8.1 °F -3.2 °F 3.2 °F 81% 29.81 in 10.0 mi West 6.9 mph - N/A   Clear
1:55 AM 8.1 °F - 3.2 °F 81% 29.80 in 10.0 mi Calm Calm - N/A   Clear
2:15 AM 7.2 °F 0.3 °F 2.7 °F 82% 29.80 in 10.0 mi WSW 3.5 mph - N/A   Clear
2:35 AM 5.0 °F -4.1 °F 1.9 °F 87% 29.79 in 10.0 mi WSW 4.6 mph - N/A   Clear
2:55 AM 6.1 °F -9.5 °F 2.3 °F 84% 29.79 in 10.0 mi West 11.5 mph - N/A   Clear
3:15 AM 5.9 °F -7.0 °F 2.3 °F 85% 29.80 in 10.0 mi West 8.1 mph - N/A   Clear
3:35 AM 6.3 °F -0.7 °F 3.0 °F 87% 29.79 in 10.0 mi West 3.5 mph - N/A   Clear
3:55 AM 6.4 °F - 3.0 °F 86% 29.79 in 10.0 mi Calm Calm - N/A   Clear
4:15 AM 5.9 °F -3.0 °F 2.3 °F 85% 29.80 in 10.0 mi WSW 4.6 mph - N/A   Clear
4:35 AM 5.7 °F -4.8 °F 2.1 °F 85% 29.80 in 10.0 mi SW 5.8 mph - N/A   Clear
4:55 AM 5.9 °F -4.5 °F 2.7 °F 87% 29.81 in 10.0 mi West 5.8 mph - N/A   Clear
5:15 AM 7.7 °F -3.7 °F 4.8 °F 88% 29.81 in 10.0 mi West 6.9 mph - N/A   Scattered Clouds
5:35 AM 11.3 °F -1.3 °F 8.1 °F 87% 29.80 in 10.0 mi West 9.2 mph - N/A   Mostly Cloudy
5:55 AM 14.0 °F -0.2 °F 9.5 °F 82% 29.80 in 10.0 mi West 12.7 mph - N/A   Overcast
6:15 AM 14.2 °F 0.0 °F 9.7 °F 82% 29.80 in 10.0 mi West 12.7 mph - N/A   Scattered Clouds
6:35 AM 12.9 °F 0.7 °F 9.0 °F 84% 29.80 in 10.0 mi WNW 9.2 mph - N/A   Clear
6:55 AM 14.4 °F 3.3 °F 10.0 °F 83% 29.81 in 10.0 mi West 8.1 mph - N/A   Clear
7:35 AM 16.9 °F 6.4 °F 12.6 °F 83% 29.82 in 10.0 mi WNW 8.1 mph - N/A   Mostly Cloudy
7:55 AM 17.8 °F 5.9 °F 13.5 °F 83% 29.83 in 10.0 mi West 10.4 mph - N/A   Mostly Cloudy
8:15 AM 18.0 °F 7.7 °F 14.0 °F 84% 29.82 in 10.0 mi West 8.1 mph - N/A   Scattered Clouds
8:35 AM 20.1 °F 11.3 °F 16.3 °F 85% 29.82 in 10.0 mi West 6.9 mph - N/A   Clear
8:55 AM 29.8 °F 17.0 °F 23.4 °F 77% 29.82 in 10.0 mi NW 20.7 mph 25.3 mph N/A   Clear
9:15 AM 31.3 °F 18.5 °F 23.0 °F 71% 29.81 in 10.0 mi NW 21.9 mph 25.3 mph N/A   Scattered Clouds
9:35 AM 31.6 °F 19.7 °F 23.4 °F 71% 29.81 in 10.0 mi NW 19.6 mph 27.6 mph N/A   Mostly Cloudy
9:55 AM 32.0 °F 18.6 °F 23.2 °F 70% 29.81 in 10.0 mi NW 25.3 mph 28.8 mph N/A   Overcast
10:15 AM 32.0 °F 18.6 °F 23.4 °F 70% 29.81 in 10.0 mi NW 25.3 mph 31.1 mph N/A   Overcast
10:35 AM 32.0 °F 18.9 °F 23.7 °F 71% 29.81 in 10.0 mi NW 24.2 mph 33.4 mph N/A   Overcast
10:55 AM 32.0 °F 18.4 °F 24.3 °F 73% 29.81 in 10.0 mi NW 26.5 mph 32.2 mph N/A   Overcast
11:15 AM 32.2 °F 19.7 °F 25.0 °F 75% 29.81 in 10.0 mi NW 21.9 mph 29.9 mph N/A   Overcast
11:35 AM 32.2 °F 19.1 °F 25.7 °F 77% 29.81 in 10.0 mi NW 24.2 mph 29.9 mph N/A   Overcast
11:55 AM 32.0 °F 19.5 °F 26.6 °F 80% 29.81 in 7.0 mi NW 21.9 mph 27.6 mph N/A   Overcast
12:15 PM 31.5 °F 18.5 °F 27.0 °F 83% 29.81 in 3.0 mi NW 23.0 mph 28.8 mph N/A   Overcast
12:35 PM 30.7 °F 17.5 °F 27.5 °F 88% 29.81 in 0.8 mi NW 23.0 mph 31.1 mph N/A   Overcast
12:55 PM 31.1 °F 18.9 °F 27.9 °F 88% 29.81 in 1.0 mi NW 19.6 mph 27.6 mph N/A   Overcast
1:15 PM 31.5 °F 19.1 °F 27.9 °F 87% 29.81 in 1.2 mi NW 20.7 mph 28.8 mph N/A   Overcast
1:35 PM 32.0 °F 19.8 °F 27.9 °F 85% 29.81 in 2.5 mi NW 20.7 mph 25.3 mph N/A   Overcast
1:55 PM 32.2 °F 21.1 °F 28.2 °F 85% 29.82 in 5.0 mi NW 17.3 mph 25.3 mph N/A   Overcast
2:15 PM 32.4 °F 20.3 °F 27.9 °F 83% 29.82 in 2.0 mi NNW 20.7 mph 26.5 mph N/A   Overcast
2:35 PM 32.5 °F 21.2 °F 27.5 °F 82% 29.83 in 7.0 mi NNW 18.4 mph - N/A   Overcast
2:55 PM 32.5 °F 20.8 °F 27.3 °F 81% 29.83 in 10.0 mi NNW 19.6 mph 26.5 mph N/A   Overcast
3:15 PM 32.9 °F 21.6 °F 27.5 °F 81% 29.84 in 10.0 mi NNW 18.4 mph 26.5 mph N/A   Overcast
3:35 PM 32.9 °F 21.6 °F 27.3 °F 80% 29.85 in 10.0 mi NNW 18.4 mph - N/A   Overcast
3:55 PM 32.5 °F 20.5 °F 27.3 °F 81% 29.86 in 10.0 mi NNW 20.7 mph 27.6 mph N/A   Overcast
4:15 PM 32.2 °F 20.7 °F 27.0 °F 81% 29.87 in 10.0 mi NNW 18.4 mph - N/A   Overcast
4:35 PM 32.0 °F 20.1 °F 26.6 °F 80% 29.88 in 10.0 mi NNW 19.6 mph - N/A   Overcast
4:55 PM 32.0 °F 20.5 °F 26.6 °F 80% 29.89 in 10.0 mi NW 18.4 mph 21.9 mph N/A   Overcast
5:15 PM 31.5 °F 19.8 °F 27.5 °F 85% 29.90 in 10.0 mi NW 18.4 mph - N/A   Overcast
5:35 PM 30.7 °F 18.5 °F 28.4 °F 91% 29.92 in 1.8 mi NNW 19.6 mph - N/A   Overcast
5:55 PM 29.7 °F 17.8 °F 28.2 °F 94% 29.94 in 1.2 mi NNW 17.3 mph - N/A   Overcast
6:15 PM 29.1 °F 16.7 °F 27.5 °F 94% 29.95 in 1.5 mi NW 18.4 mph 27.6 mph N/A   Overcast
6:35 PM 28.4 °F 14.4 °F 26.6 °F 93% 29.96 in 1.8 mi NNW 23.0 mph 27.6 mph N/A   Overcast
6:55 PM 28.4 °F 13.8 °F 26.6 °F 93% 29.97 in 2.5 mi NNW 25.3 mph 31.1 mph N/A   Overcast
7:15 PM 28.2 °F 13.3 °F 26.4 °F 93% 29.98 in 1.5 mi NNW 26.5 mph 32.2 mph N/A   Overcast
7:35 PM 28.0 °F 13.3 °F 26.6 °F 94% 29.99 in 1.0 mi NNW 25.3 mph 31.1 mph N/A   Overcast
7:55 PM 27.9 °F 13.4 °F 26.6 °F 95% 30.00 in 1.2 mi NNW 24.2 mph - N/A   Overcast
8:15 PM 27.7 °F 14.5 °F 26.4 °F 95% 30.01 in 2.0 mi NNW 19.6 mph 27.6 mph N/A   Overcast
8:35 PM 27.9 °F 13.7 °F 26.1 °F 93% 30.02 in 1.8 mi NNW 23.0 mph 29.9 mph N/A   Overcast
8:55 PM 27.5 °F 13.2 °F 25.7 °F 93% 30.03 in 3.0 mi NW 23.0 mph 27.6 mph N/A   Overcast
9:15 PM 27.5 °F 13.2 °F 25.7 °F 93% 30.04 in 3.0 mi NNW 23.0 mph 27.6 mph N/A   Overcast
9:35 PM 27.5 °F 12.3 °F 25.5 °F 92% 30.05 in 4.0 mi NNW 26.5 mph - N/A   Overcast
9:55 PM 27.5 °F 13.9 °F 25.7 °F 93% 30.06 in 1.2 mi NNW 20.7 mph - N/A   Overcast
10:15 PM 27.3 °F 14.4 °F 25.7 °F 94% 30.06 in 1.5 mi NNW 18.4 mph - N/A   Overcast
10:35 PM 27.5 °F 14.2 °F 25.5 °F 92% 30.06 in 1.8 mi NNW 19.6 mph - N/A   Overcast
10:55 PM 27.5 °F 12.6 °F 24.8 °F 90% 30.07 in 5.0 mi NNW 25.3 mph 28.8 mph N/A   Overcast
11:15 PM 27.5 °F 13.2 °F 24.8 °F 90% 30.07 in 5.0 mi NNW 23.0 mph 28.8 mph N/A   Overcast
11:35 PM 27.5 °F 12.9 °F 24.8 °F 90% 30.07 in 4.0 mi NNW 24.2 mph 29.9 mph N/A   Overcast
11:55 PM 27.5 °F 13.5 °F 24.6 °F 89% 30.07 in 7.0 mi NNW 21.9 mph 27.6 mph N/A   Overcast